TimeEST,TemperatureF,Dew PointF,Humidity,Sea Level PressureIn,VisibilityMPH,Wind Direction,Wind SpeedMPH,Gust SpeedMPH,PrecipitationIn,Events,Conditions,WindDirDegrees,DateUTC
12:55 AM,62.6,62.6,100,30.18,10.0,SSW,3.5,-,N/A,,Overcast,210,2013-01-12 05:55:00
1:15 AM,62.6,62.6,100,30.18,10.0,South,4.6,-,N/A,,Overcast,190,2013-01-12 06:15:00
1:55 AM,62.6,62.6,100,30.17,10.0,South,4.6,-,N/A,,Overcast,190,2013-01-12 06:55:00
2:15 AM,62.6,62.6,100,30.17,10.0,SSW,4.6,-,N/A,,Mostly Cloudy,210,2013-01-12 07:15:00
2:35 AM,60.8,60.8,100,30.17,10.0,South,5.8,-,N/A,,Scattered Clouds,190,2013-01-12 07:35:00
2:55 AM,60.8,60.8,100,30.17,10.0,SSW,4.6,-,N/A,,Clear,210,2013-01-12 07:55:00
3:15 AM,60.8,60.8,100,30.17,7.0,Calm,Calm,-,N/A,,Clear,0,2013-01-12 08:15:00
3:35 AM,60.8,60.8,100,30.17,7.0,Calm,Calm,-,N/A,,Clear,0,2013-01-12 08:35:00
3:55 AM,59.0,59.0,100,30.16,1.0,South,4.6,-,N/A,,Mostly Cloudy,190,2013-01-12 08:55:00
4:15 AM,60.8,60.8,100,30.16,7.0,SSW,4.6,-,N/A,,Scattered Clouds,200,2013-01-12 09:15:00
4:35 AM,60.8,60.8,100,30.15,7.0,SSW,5.8,-,N/A,,Clear,200,2013-01-12 09:35:00
4:55 AM,60.8,60.8,100,30.15,5.0,SSW,4.6,-,N/A,,Clear,210,2013-01-12 09:55:00
5:15 AM,60.8,60.8,100,30.15,5.0,SSW,4.6,-,N/A,,Clear,210,2013-01-12 10:15:00
5:35 AM,60.8,60.8,100,30.15,5.0,SSW,4.6,-,N/A,,Clear,210,2013-01-12 10:35:00
5:55 AM,60.8,60.8,100,30.15,4.0,SSW,5.8,-,N/A,,Clear,200,2013-01-12 10:55:00
6:15 AM,60.8,60.8,100,30.15,3.0,SSW,4.6,-,N/A,,Mostly Cloudy,210,2013-01-12 11:15:00
6:35 AM,60.8,60.8,100,30.16,4.0,SSW,5.8,-,N/A,,Overcast,210,2013-01-12 11:35:00
6:55 AM,60.8,60.8,100,30.16,1.5,South,5.8,-,N/A,,Overcast,190,2013-01-12 11:55:00
7:15 AM,60.8,60.8,100,30.17,0.8,SSW,5.8,-,N/A,,Overcast,200,2013-01-12 12:15:00
7:35 AM,60.8,60.8,100,30.17,1.8,SSW,5.8,-,N/A,,Overcast,200,2013-01-12 12:35:00
7:55 AM,60.8,60.8,100,30.18,1.0,SSW,3.5,-,N/A,,Overcast,210,2013-01-12 12:55:00
8:15 AM,60.8,60.8,100,30.18,1.5,SSW,3.5,-,N/A,,Overcast,210,2013-01-12 13:15:00
8:35 AM,60.8,60.8,100,30.19,3.0,SW,4.6,-,N/A,,Overcast,230,2013-01-12 13:35:00
8:55 AM,62.6,62.6,100,30.19,4.0,SSW,3.5,-,N/A,,Overcast,210,2013-01-12 13:55:00
9:15 AM,62.6,62.6,100,30.20,5.0,SW,3.5,-,N/A,,Overcast,220,2013-01-12 14:15:00
9:35 AM,62.6,62.6,100,30.20,7.0,SW,3.5,-,N/A,,Overcast,220,2013-01-12 14:35:00
9:55 AM,62.6,62.6,100,30.20,7.0,South,5.8,-,N/A,,Scattered Clouds,190,2013-01-12 14:55:00
10:15 AM,66.2,64.4,94,30.20,10.0,SSW,5.8,-,N/A,,Clear,200,2013-01-12 15:15:00
10:35 AM,68.0,64.4,88,30.19,10.0,SW,4.6,-,N/A,,Clear,220,2013-01-12 15:35:00
10:55 AM,69.8,62.6,78,30.19,10.0,SW,5.8,-,N/A,,Clear,230,2013-01-12 15:55:00
11:15 AM,71.6,62.6,73,30.19,10.0,WSW,3.5,-,N/A,,Clear,240,2013-01-12 16:15:00
11:35 AM,73.4,62.6,69,30.18,10.0,West,5.8,-,N/A,,Scattered Clouds,270,2013-01-12 16:35:00
11:55 AM,73.4,62.6,69,30.17,10.0,SW,5.8,-,N/A,,Scattered Clouds,230,2013-01-12 16:55:00
12:15 PM,75.2,62.6,65,30.16,10.0,WSW,8.1,-,N/A,,Clear,250,2013-01-12 17:15:00
12:35 PM,75.2,62.6,65,30.15,10.0,West,5.8,-,N/A,,Clear,270,2013-01-12 17:35:00
12:55 PM,77.0,62.6,61,30.14,10.0,SW,5.8,-,N/A,,Clear,230,2013-01-12 17:55:00
1:15 PM,77.0,60.8,57,30.14,10.0,SW,8.1,-,N/A,,Clear,230,2013-01-12 18:15:00
1:35 PM,77.0,60.8,57,30.13,10.0,WSW,9.2,-,N/A,,Clear,250,2013-01-12 18:35:00
1:55 PM,78.8,60.8,54,30.13,10.0,SW,8.1,-,N/A,,Clear,220,2013-01-12 18:55:00
2:15 PM,78.8,60.8,54,30.13,10.0,WSW,8.1,-,N/A,,Clear,250,2013-01-12 19:15:00
2:35 PM,78.8,59.0,51,30.13,10.0,WSW,5.8,-,N/A,,Clear,240,2013-01-12 19:35:00
2:55 PM,78.8,59.0,51,30.13,10.0,West,6.9,-,N/A,,Clear,280,2013-01-12 19:55:00
3:15 PM,78.8,60.8,54,30.12,10.0,WNW,5.8,-,N/A,,Clear,300,2013-01-12 20:15:00
3:35 PM,78.8,59.0,51,30.12,10.0,West,8.1,-,N/A,,Clear,280,2013-01-12 20:35:00
3:55 PM,78.8,59.0,51,30.12,10.0,SW,4.6,-,N/A,,Clear,230,2013-01-12 20:55:00
4:15 PM,78.8,60.8,54,30.13,10.0,WSW,3.5,-,N/A,,Clear,240,2013-01-12 21:15:00
4:35 PM,78.8,59.0,51,30.12,10.0,Calm,Calm,-,N/A,,Clear,0,2013-01-12 21:35:00
4:55 PM,75.2,60.8,61,30.12,10.0,Calm,Calm,-,N/A,,Clear,0,2013-01-12 21:55:00
5:15 PM,69.8,62.6,78,30.12,10.0,SW,3.5,-,N/A,,Clear,220,2013-01-12 22:15:00
5:35 PM,68.0,62.6,83,30.12,10.0,SSW,3.5,-,N/A,,Clear,210,2013-01-12 22:35:00
5:55 PM,68.0,62.6,83,30.13,10.0,SSW,3.5,-,N/A,,Clear,200,2013-01-12 22:55:00
6:15 PM,64.4,62.6,94,30.12,10.0,South,3.5,-,N/A,,Clear,170,2013-01-12 23:15:00
6:35 PM,64.4,62.6,94,30.12,10.0,Calm,Calm,-,N/A,,Clear,0,2013-01-12 23:35:00
6:55 PM,64.4,62.6,94,30.12,10.0,South,5.8,-,N/A,,Clear,170,2013-01-12 23:55:00
7:15 PM,64.4,60.8,88,30.12,10.0,South,5.8,-,N/A,,Clear,190,2013-01-13 00:15:00
7:35 PM,62.6,60.8,94,30.12,10.0,South,3.5,-,N/A,,Clear,170,2013-01-13 00:35:00
7:55 PM,62.6,60.8,94,30.12,10.0,South,3.5,-,N/A,,Clear,190,2013-01-13 00:55:00
8:15 PM,60.8,60.8,100,30.11,10.0,South,4.6,-,N/A,,Clear,180,2013-01-13 01:15:00
8:35 PM,62.6,60.8,94,30.12,10.0,Calm,Calm,-,N/A,,Clear,0,2013-01-13 01:35:00
8:55 PM,62.6,60.8,94,30.12,10.0,South,4.6,-,N/A,,Clear,190,2013-01-13 01:55:00
9:15 PM,60.8,60.8,100,30.11,10.0,Calm,Calm,-,N/A,,Clear,0,2013-01-13 02:15:00
9:35 PM,59.0,59.0,100,30.11,10.0,Calm,Calm,-,N/A,,Clear,0,2013-01-13 02:35:00
9:55 PM,60.8,60.8,100,30.12,10.0,Calm,Calm,-,N/A,,Clear,0,2013-01-13 02:55:00
10:15 PM,59.0,59.0,100,30.12,10.0,SSW,3.5,-,N/A,,Clear,200,2013-01-13 03:15:00
10:55 PM,59.0,59.0,100,30.13,7.0,South,3.5,-,N/A,,Clear,180,2013-01-13 03:55:00
11:15 PM,59.0,59.0,100,30.13,7.0,Calm,Calm,-,N/A,,Clear,0,2013-01-13 04:15:00
11:35 PM,59.0,59.0,100,30.13,7.0,SSW,3.5,-,N/A,,Clear,200,2013-01-13 04:35:00